Location: Augirein
(42.9320°N, 0.9181°E)
Time: 01:47:13
(UTC+00:00)

SL-16 R/B - Pass Details

Date: 20 June 2021
Orbit: 985 x 1007 km, 99.5° (Epoch: 04 August)

Event Time Altitude Azimuth Distance (km) Brightness Sun altitude
Exits shadow 02:44:56 18° 219° (SW) 2,221 3.7 -13.3°
Maximum altitude 02:48:20 29° 265° (W) 1,733 3.5 -12.9°
Drops below altitude 10° 02:53:38 10° 324° (NW) 2,758 5.0 -12.3°
Sets 02:56:29 0° 335° (NNW) 3,709 5.9 -12.0°
